Location: New Plymouth
(39.0670°S, 174.0830°E)
Time: 17:18:59
(UTC+12:00)

USA 238 - Pass Details

Date: 24 January 2019
Orbit: 1043 x 1170 km, 63.4° (Epoch: 13 April)

Event Time Altitude Azimuth Distance (km) Brightness Sun altitude
Rises 22:13:22 0° 355° (N) 4,033 6.4 -14.9°
Reaches altitude 10° 22:16:17 10° 2° (N) 3,075 5.7 -15.4°
Maximum altitude 22:22:57 38° 67° (ENE) 1,694 4.3 -16.3°
Drops below altitude 10° 22:29:35 10° 132° (SE) 3,053 6.0 -17.3°
Sets 22:32:27 0° 139° (SE) 4,001 6.8 -17.7°
